Stations météo

réclame
Mon MeteoGroup
Leuchars, Grande-Bretagne (3171): Température de l'air & dewpoint: 13.07.2018 20:00:00 - 19.07.2018 20:00:00 (BST)Leuchars, Grande-Bretagne (3171): Température de l'air -20cm & Température de l'air -100cm: 13.07.2018 20:00:00 - 19.07.2018 20:00:00 (BST)Leuchars, Grande-Bretagne (3171): Vitesse du vent & gusts: 13.07.2018 20:00:00 - 19.07.2018 20:00:00 (BST)Leuchars, Grande-Bretagne (3171): Direction du vent: 13.07.2018 20:00:00 - 19.07.2018 20:00:00 (BST)Leuchars, Grande-Bretagne (3171): reduced air pressure: 13.07.2018 20:00:00 - 19.07.2018 20:00:00 (BST)Leuchars, Grande-Bretagne (3171): visibility: 13.07.2018 20:00:00 - 19.07.2018 20:00:00 (BST)Leuchars, Grande-Bretagne (3171): Ensoleillement: 13.07.2018 20:00:00 - 19.07.2018 20:00:00 (BST)Leuchars, Grande-Bretagne (3171): Quantités de précipitations: 13.07.2018 20:00:00 - 19.07.2018 20:00:00 (BST)
Date & Time tt [°C] td [°C] tt -20cm [°C] tt -100cm [°C] ff [km/h] ff [knt] fx [km/h] fx [knt] dd ppp [hPa] vv [km] sd [min] rr [mm]
19.07.2018 20:00:00 - - - - - - - - - - - - -
19.07.2018 19:00:00 22,0 7,9 - - 24 13 - - W 1015,6 10 54 0,0
19.07.2018 18:00:00 23,3 8,7 - - 24 13 - - W 1015,6 10 42 0,0
19.07.2018 17:00:00 21,3 9,0 - - 24 13 - - W 1016,1 50 12 0,0
19.07.2018 16:00:00 22,6 8,2 - - 21 11 - - WSW 1016,3 10 24 0,0
19.07.2018 15:00:00 21,6 10,4 - - 8 4 - - ENE 1016,6 10 12 0,0
19.07.2018 14:00:00 21,5 10,1 - - 11 6 - - ENE 1016,8 10 48 0,0
19.07.2018 13:00:00 22,5 9,7 - - 15 8 - - SW 1017,1 10 24 0,0
19.07.2018 12:00:00 20,6 11,6 - - 11 6 - - SE 1017,4 10 36 0,0
19.07.2018 11:00:00 21,1 9,8 - - 9 5 - - WSW 1017,5 10 60 0,0
19.07.2018 10:00:00 18,8 11,9 14,7 14,4 8 4 - - W 1017,9 10 60 0,0
19.07.2018 09:00:00 18,0 13,3 - - 5 3 - - WNW 1018,3 10 36 0,0
19.07.2018 08:00:00 16,6 13,3 - - 4 2 - - SW 1018,4 10 24 0,0
19.07.2018 07:00:00 15,2 13,7 - - 2 1 - - SSE 1018,3 10 6 0,0
19.07.2018 06:00:00 14,1 13,1 - - 2 1 - - WSW 1018,3 10 0 0,0
19.07.2018 05:00:00 13,8 12,8 - - 4 2 - - N 1018,2 10 0 0,0
19.07.2018 04:00:00 13,3 12,3 - - 8 4 - - N 1018,3 10 0 0,0
19.07.2018 03:00:00 14,0 11,6 - - 4 2 - - NE 1018,3 10 0 0,0
19.07.2018 02:00:00 15,5 12,3 - - 5 3 - - N 1018,5 10 0 0,0
19.07.2018 01:00:00 16,4 12,0 - - 5 3 - - NW 1018,3 10 - 0,0
19.07.2018 00:00:00 17,2 11,7 - - 5 3 - - WNW 1018,3 10 0 0,0
18.07.2018 23:00:00 17,1 11,8 - - 4 2 - - W 1018,2 50 0 0,0
18.07.2018 22:00:00 17,6 12,7 - - 8 4 - - SSE 1018,1 10 0 0,0
18.07.2018 21:00:00 18,3 12,8 - - 8 4 - - E 1017,7 10 0 0,0
18.07.2018 20:00:00 19,3 11,6 - - 15 8 - - SSW 1017,7 10 12 0,0
18.07.2018 19:00:00 19,2 11,9 - - 13 7 - - S 1017,6 10 0 0,0
18.07.2018 18:00:00 19,9 10,7 - - 18 10 - - SSW 1017,2 40 18 0,0
18.07.2018 17:00:00 19,4 11,8 - - 18 10 - - ESE 1017,2 40 30 0,0
18.07.2018 16:00:00 20,0 13,1 - - 9 5 - - ENE 1017,1 10 24 0,0
18.07.2018 15:00:00 18,6 12,6 - - 21 11 - - E 1016,9 10 6 0,0
18.07.2018 14:00:00 19,3 11,5 - - 21 11 - - SE 1016,7 10 54 0,0
18.07.2018 13:00:00 20,2 9,0 - - 13 7 - - WSW 1016,7 10 60 0,0
18.07.2018 12:00:00 18,3 9,4 - - 8 4 - - W 1016,6 10 24 0,0
18.07.2018 11:00:00 16,9 10,8 - - 11 6 - - SW 1016,8 10 6 0,0
18.07.2018 10:00:00 15,0 10,6 14,5 14,4 8 4 - - WNW 1016,7 10 0 0,0
18.07.2018 09:00:00 13,8 12,1 - - 9 5 - - W 1016,7 10 0 0,0
18.07.2018 08:00:00 13,7 10,1 - - 9 5 - - W 1016,3 10 0 0,0
18.07.2018 07:00:00 13,0 9,5 - - 5 3 - - W 1015,8 10 0 0,0
18.07.2018 06:00:00 12,3 8,9 - - 8 4 - - W 1015,3 10 6 0,0
18.07.2018 05:00:00 10,6 7,2 - - 5 3 - - W 1015,1 10 0 0,0
18.07.2018 04:00:00 12,9 8,2 - - 5 3 - - W 1015,0 10 0 0,0
18.07.2018 03:00:00 12,6 8,6 - - 8 4 - - W 1014,9 10 0 0,0
18.07.2018 02:00:00 12,5 8,4 - - 15 8 - - WSW 1014,8 10 0 0,0
18.07.2018 01:00:00 12,5 8,2 - - 11 6 - - W 1014,7 10 - 0,0
18.07.2018 00:00:00 13,3 8,3 - - 13 7 - - W 1014,5 10 0 0,0
17.07.2018 23:00:00 14,1 8,2 - - 11 6 - - W 1014,1 10 0 0,0
17.07.2018 22:00:00 13,9 7,9 - - 13 7 - - W 1013,7 10 6 0,0
17.07.2018 21:00:00 17,9 6,4 - - 16 9 - - W 1013,0 10 42 0,0
17.07.2018 20:00:00 18,9 7,3 - - 21 11 - - WSW 1012,6 10 6 0,0
17.07.2018 19:00:00 18,5 7,5 - - 18 10 - - W 1012,2 10 24 0,0
17.07.2018 18:00:00 20,4 6,8 - - 22 12 - - WSW 1011,9 10 30 0,0
17.07.2018 17:00:00 21,6 6,9 - - 28 15 - - W 1011,9 10 18 0,0
17.07.2018 16:00:00 21,3 7,2 - - 24 13 - - W 1011,8 45 42 0,0
17.07.2018 15:00:00 21,4 8,6 - - 29 16 - - SW 1011,7 10 42 0,0
17.07.2018 14:00:00 19,4 8,6 - - 15 8 - - W 1012,0 10 0 0,0
17.07.2018 13:00:00 18,4 10,2 - - 22 12 - - WSW 1012,3 10 0 0,0
17.07.2018 12:00:00 19,0 9,3 - - 18 10 - - W 1012,0 10 0 0,0
17.07.2018 11:00:00 17,6 9,7 - - 16 9 - - W 1012,1 10 0 0,0
17.07.2018 10:00:00 16,7 9,9 14,7 14,2 13 7 - - WNW 1012,1 10 0 0,0
17.07.2018 09:00:00 15,7 10,2 - - 13 7 - - WNW 1012,1 10 0 0,0
17.07.2018 08:00:00 16,6 10,5 - - 21 11 - - WNW 1011,6 10 60 0,0
17.07.2018 07:00:00 12,6 10,5 - - 11 6 - - W 1011,7 10 6 0,0
17.07.2018 06:00:00 12,0 9,7 - - 9 5 - - W 1011,5 10 0 0,0
17.07.2018 05:00:00 12,5 9,8 - - 11 6 - - W 1011,5 10 0 0,0
17.07.2018 04:00:00 12,1 9,2 - - 8 4 - - W 1011,8 10 0 0,0
17.07.2018 03:00:00 13,7 9,8 - - 13 7 - - W 1012,0 10 0 0,0
17.07.2018 02:00:00 14,7 10,0 - - 11 6 - - W 1012,0 10 0 0,0
17.07.2018 01:00:00 15,8 9,6 - - 13 7 - - W 1012,1 10 - 0,0
17.07.2018 00:00:00 16,4 9,5 - - 9 5 - - W 1012,1 10 0 0,0
16.07.2018 23:00:00 16,9 9,0 - - 9 5 - - W 1012,0 10 0 0,0
16.07.2018 22:00:00 18,4 8,4 - - 15 8 - - W 1011,8 10 0 0,0
16.07.2018 21:00:00 19,8 6,9 - - 21 11 - - WNW 1011,5 10 54 0,0
16.07.2018 20:00:00 21,0 7,8 - - 22 12 - - W 1011,1 10 60 0,0
16.07.2018 19:00:00 21,7 7,7 - - 21 11 - - W 1010,8 10 48 0,0
16.07.2018 18:00:00 21,8 7,7 - - 24 13 - - W 1010,8 10 30 0,0
16.07.2018 17:00:00 21,9 8,2 - - 22 12 - - W 1010,8 10 42 0,0
16.07.2018 16:00:00 21,9 8,1 - - 26 14 - - W 1011,1 10 24 0,0
16.07.2018 15:00:00 21,8 8,9 - - 26 14 - - WSW 1010,9 10 12 0,0
16.07.2018 14:00:00 20,7 9,5 - - 22 12 - - WSW 1011,1 10 54 0,0
16.07.2018 13:00:00 20,2 10,9 - - 24 13 - - WSW 1011,1 10 6 0,0
16.07.2018 12:00:00 19,8 13,0 - - 22 12 - - WSW 1011,0 10 0 0,0
16.07.2018 11:00:00 19,1 13,6 - - 22 12 - - W 1010,8 45 0 0,0
16.07.2018 10:00:00 18,1 13,9 14,7 14,2 21 11 - - W 1010,6 45 0 0,0
16.07.2018 09:00:00 18,4 15,7 - - 15 8 - - SW 1010,3 10 0 0,0
16.07.2018 08:00:00 18,6 16,1 - - 11 6 - - SSW 1010,2 50 0 0,0
16.07.2018 07:00:00 17,4 15,8 - - 2 1 - - SSE 1010,2 10 0 0,0
16.07.2018 06:00:00 17,3 15,3 - - 4 2 - - SW 1010,3 10 0 0,0
16.07.2018 05:00:00 17,1 15,0 - - 8 4 - - SSW 1010,3 10 0 0,0
16.07.2018 04:00:00 17,1 15,1 - - 5 3 - - SE 1010,6 10 0 0,0
16.07.2018 03:00:00 17,3 15,2 - - 4 2 - - SSE 1010,8 10 0 0,0
16.07.2018 02:00:00 17,4 15,2 - - 5 3 - - S 1011,1 10 0 0,0
16.07.2018 01:00:00 17,5 15,2 - - 5 3 - - SSW 1011,4 10 - 0,0
16.07.2018 00:00:00 17,4 15,3 - - 9 5 - - WSW 1011,6 10 0 0,0
15.07.2018 23:00:00 17,3 15,5 - - 13 7 - - W 1011,7 10 0 0,0
15.07.2018 22:00:00 17,7 15,5 - - 16 9 - - WSW 1011,6 10 0 0,0
15.07.2018 21:00:00 17,9 15,8 - - 15 8 - - WSW 1011,7 10 0 0,0
15.07.2018 20:00:00 18,0 16,2 - - 16 9 - - SW 1011,9 10 0 0,0
15.07.2018 19:00:00 19,3 15,6 - - 16 9 - - WSW 1011,9 10 0 0,0
15.07.2018 18:00:00 19,3 15,0 - - 18 10 - - W 1012,1 10 0 0,0
15.07.2018 17:00:00 21,1 14,5 - - 18 10 - - WSW 1012,2 10 0 0,0
15.07.2018 16:00:00 21,0 14,7 - - 24 13 - - WSW 1012,4 10 0 0,0
15.07.2018 15:00:00 22,7 14,5 - - 22 12 - - W 1012,2 10 0 0,0
15.07.2018 14:00:00 22,7 15,0 - - 24 13 - - W 1012,2 10 18 0,0
15.07.2018 13:00:00 23,7 15,1 - - 26 14 - - SSW 1012,3 10 30 0,0
15.07.2018 12:00:00 23,5 15,0 - - 21 11 - - SW 1012,6 30 18 0,0
15.07.2018 11:00:00 22,1 15,3 - - 15 8 - - WSW 1012,8 10 0 0,0
15.07.2018 10:00:00 20,0 14,5 14,7 14,2 11 6 - - W 1013,0 10 0 0,0
15.07.2018 09:00:00 18,9 14,2 - - 13 7 - - SW 1013,1 10 0 0,0
15.07.2018 08:00:00 18,2 13,6 - - 11 6 - - WSW 1013,3 10 6 0,0
15.07.2018 07:00:00 18,0 13,2 - - 9 5 - - SW 1013,1 10 18 0,0
15.07.2018 06:00:00 16,4 12,1 - - 4 2 - - WSW 1013,0 10 0 0,0
15.07.2018 05:00:00 15,1 11,6 - - 11 6 - - W 1013,0 10 0 0,0
15.07.2018 04:00:00 16,0 12,0 - - 11 6 - - SW 1013,3 10 0 0,0
15.07.2018 03:00:00 14,9 11,2 - - 11 6 - - WSW 1013,5 10 0 0,0
15.07.2018 02:00:00 15,8 11,5 - - 13 7 - - WSW 1013,5 40 0 0,0
15.07.2018 01:00:00 16,3 12,0 - - 11 6 - - WSW 1013,9 10 - 0,0
15.07.2018 00:00:00 16,1 12,3 - - 11 6 - - WSW 1014,2 40 0 0,0
14.07.2018 23:00:00 17,0 12,8 - - 5 3 - - WSW 1014,3 10 0 0,0
14.07.2018 22:00:00 18,3 12,8 - - 9 5 - - SW 1014,2 10 0 0,0
14.07.2018 21:00:00 21,3 12,2 - - 16 9 - - WNW 1014,0 10 36 0,0
14.07.2018 20:00:00 23,6 12,6 - - 24 13 - - W 1014,0 10 60 0,0
14.07.2018 19:00:00 24,3 11,7 - - 26 14 - - W 1014,0 10 60 0,0
14.07.2018 18:00:00 24,9 13,7 - - 24 13 - - WSW 1014,0 10 30 0,0
14.07.2018 17:00:00 25,4 12,2 - - 24 13 - - WSW 1014,2 10 48 0,0
14.07.2018 16:00:00 25,1 11,2 - - 26 14 - - W 1014,5 10 60 0,0
14.07.2018 15:00:00 24,9 11,7 - - 28 15 50 27 W 1015,2 10 60 0,0
14.07.2018 14:00:00 23,9 11,6 - - 29 16 - - W 1015,6 10 60 0,0
14.07.2018 13:00:00 22,4 11,6 - - 28 15 - - W 1016,1 10 54 0,0
14.07.2018 12:00:00 22,2 11,4 - - 31 17 - - W 1016,5 10 54 0,0
14.07.2018 11:00:00 20,3 11,7 - - 26 14 - - W 1016,9 10 54 0,0
14.07.2018 10:00:00 20,3 12,6 14,5 14,2 26 14 - - WSW 1017,1 10 54 0,0
14.07.2018 09:00:00 19,4 12,2 - - 21 11 - - W 1017,5 10 60 0,0
14.07.2018 08:00:00 16,8 11,9 - - 13 7 - - W 1017,8 10 48 0,0
14.07.2018 07:00:00 14,9 11,5 - - 11 6 - - W 1018,0 10 54 0,0
14.07.2018 06:00:00 12,8 10,9 - - 11 6 - - WSW 1018,2 10 6 0,0
14.07.2018 05:00:00 13,4 11,3 - - 11 6 - - W 1018,3 10 0 0,0
14.07.2018 04:00:00 14,5 11,9 - - 8 4 - - WNW 1018,5 10 0 0,0
14.07.2018 03:00:00 15,6 12,8 - - 15 8 - - WSW 1018,7 10 0 0,0
14.07.2018 02:00:00 16,7 13,9 - - 13 7 - - W 1018,8 10 0 0,0
14.07.2018 01:00:00 16,7 14,3 - - 9 5 - - W 1019,0 10 - 0,0
14.07.2018 00:00:00 17,2 14,5 - - 9 5 - - WSW 1019,2 10 0 0,0
13.07.2018 23:00:00 17,2 14,3 - - 8 4 - - SSW 1019,3 10 0 0,0
13.07.2018 22:00:00 17,3 14,4 - - 4 2 - - WSW 1019,4 5 0 0,0
13.07.2018 21:00:00 18,9 14,8 - - 8 4 - - S 1019,3 10 0 0,0
13.07.2018 20:00:00 17,8 15,1 - - 13 7 - - ESE 1019,5 17 24 0,0

tt = Température de l'air
td = dewpoint
tt -20cm = Température de l'air -20cm
tt -100cm = Température de l'air -100cm
ff = Vitesse du vent
fx = gusts
dd = Direction du vent
ppp = reduced air pressure
vv = visibility
sd = Ensoleillement
rr = Quantités de précipitations

stations d'obs. à proximité